TimeEST,TemperatureF,Dew PointF,Humidity,Sea Level PressureIn,VisibilityMPH,Wind Direction,Wind SpeedMPH,Gust SpeedMPH,PrecipitationIn,Events,Conditions,WindDirDegrees,DateUTC
12:15 AM,44.6,37.4,76,30.43,10.0,North,5.8,-,N/A,,Overcast,360,2014-01-09 05:15:00
12:35 AM,44.6,37.4,76,30.43,10.0,NNE,6.9,-,N/A,,Overcast,20,2014-01-09 05:35:00
12:55 AM,44.6,37.4,76,30.42,10.0,North,5.8,-,N/A,,Overcast,10,2014-01-09 05:55:00
1:15 AM,44.6,37.4,76,30.41,10.0,NNE,6.9,-,N/A,,Overcast,20,2014-01-09 06:15:00
1:35 AM,44.6,37.4,76,30.40,10.0,NE,4.6,-,N/A,,Overcast,40,2014-01-09 06:35:00
1:55 AM,44.6,35.6,71,30.40,10.0,NE,8.1,-,N/A,,Overcast,40,2014-01-09 06:55:00
2:15 AM,44.6,35.6,71,30.39,10.0,NE,6.9,-,N/A,,Overcast,40,2014-01-09 07:15:00
2:35 AM,44.6,35.6,71,30.39,10.0,NNE,4.6,-,N/A,,Overcast,30,2014-01-09 07:35:00
2:55 AM,44.6,37.4,76,30.40,10.0,NNE,5.8,-,N/A,,Overcast,20,2014-01-09 07:55:00
3:15 AM,44.6,37.4,76,30.39,10.0,NNE,5.8,-,N/A,,Overcast,30,2014-01-09 08:15:00
3:35 AM,44.6,37.4,76,30.39,10.0,NNE,6.9,-,N/A,,Overcast,30,2014-01-09 08:35:00
3:55 AM,44.6,39.2,81,30.39,10.0,NNE,6.9,-,N/A,,Overcast,30,2014-01-09 08:55:00
4:15 AM,46.4,39.2,76,30.39,10.0,NNE,3.5,-,N/A,,Overcast,20,2014-01-09 09:15:00
4:35 AM,46.4,41.0,81,30.39,10.0,NNE,5.8,-,N/A,,Overcast,20,2014-01-09 09:35:00
4:55 AM,46.4,41.0,81,30.37,10.0,NE,10.4,-,N/A,,Overcast,40,2014-01-09 09:55:00
5:15 AM,46.4,41.0,81,30.38,10.0,NNE,5.8,-,N/A,,Overcast,20,2014-01-09 10:15:00
5:35 AM,46.4,41.0,81,30.38,10.0,NNE,8.1,-,N/A,,Overcast,30,2014-01-09 10:35:00
5:55 AM,46.4,42.8,87,30.39,10.0,NNE,6.9,-,N/A,,Overcast,30,2014-01-09 10:55:00
6:15 AM,46.4,42.8,87,30.39,10.0,NNE,6.9,-,N/A,,Overcast,30,2014-01-09 11:15:00
6:35 AM,48.2,42.8,82,30.39,10.0,NNE,9.2,-,N/A,,Overcast,30,2014-01-09 11:35:00
6:55 AM,48.2,42.8,82,30.40,10.0,NNE,8.1,-,N/A,,Overcast,20,2014-01-09 11:55:00
7:15 AM,48.2,42.8,82,30.41,10.0,NNE,5.8,-,N/A,,Overcast,20,2014-01-09 12:15:00
7:35 AM,48.2,42.8,82,30.41,10.0,NNE,3.5,-,N/A,,Overcast,20,2014-01-09 12:35:00
7:55 AM,48.2,42.8,82,30.42,10.0,NNE,5.8,-,N/A,,Overcast,20,2014-01-09 12:55:00
8:15 AM,48.2,42.8,82,30.43,10.0,NNE,8.1,-,N/A,,Overcast,20,2014-01-09 13:15:00
8:35 AM,50.0,44.6,82,30.43,10.0,NE,10.4,16.1,N/A,,Overcast,40,2014-01-09 13:35:00
8:55 AM,50.0,44.6,82,30.44,10.0,NE,10.4,-,N/A,,Overcast,40,2014-01-09 13:55:00
9:15 AM,50.0,44.6,82,30.44,10.0,NE,10.4,-,N/A,,Overcast,50,2014-01-09 14:15:00
9:35 AM,51.8,46.4,82,30.45,10.0,NE,6.9,-,N/A,,Overcast,40,2014-01-09 14:35:00
9:55 AM,51.8,46.4,82,30.45,10.0,NE,9.2,-,N/A,,Overcast,50,2014-01-09 14:55:00
10:15 AM,51.8,48.2,88,30.45,10.0,NE,8.1,-,N/A,,Overcast,40,2014-01-09 15:15:00
10:35 AM,53.6,48.2,82,30.44,10.0,NE,11.5,-,N/A,,Overcast,50,2014-01-09 15:35:00
10:55 AM,55.4,48.2,77,30.44,10.0,NE,9.2,-,N/A,,Overcast,50,2014-01-09 15:55:00
11:15 AM,55.4,48.2,77,30.44,10.0,NNE,10.4,-,N/A,,Overcast,20,2014-01-09 16:15:00
11:35 AM,55.4,46.4,72,30.42,10.0,NE,12.7,16.1,N/A,,Overcast,40,2014-01-09 16:35:00
11:55 AM,55.4,48.2,77,30.42,10.0,NE,11.5,16.1,N/A,,Overcast,40,2014-01-09 16:55:00
12:15 PM,55.4,46.4,72,30.41,10.0,NE,11.5,16.1,N/A,,Overcast,40,2014-01-09 17:15:00
12:35 PM,55.4,48.2,77,30.40,10.0,NE,9.2,-,N/A,,Overcast,40,2014-01-09 17:35:00
12:55 PM,55.4,46.4,72,30.39,10.0,NNE,9.2,-,N/A,,Overcast,30,2014-01-09 17:55:00
1:15 PM,55.4,48.2,77,30.37,10.0,NE,10.4,-,N/A,,Overcast,40,2014-01-09 18:15:00
1:35 PM,55.4,46.4,72,30.36,10.0,NE,10.4,16.1,N/A,,Overcast,40,2014-01-09 18:35:00
1:55 PM,55.4,46.4,72,30.36,10.0,NE,11.5,17.3,N/A,,Overcast,50,2014-01-09 18:55:00
2:15 PM,55.4,48.2,77,30.35,10.0,NNE,9.2,16.1,N/A,,Overcast,30,2014-01-09 19:15:00
2:35 PM,53.6,48.2,82,30.35,10.0,NNE,8.1,-,N/A,,Overcast,30,2014-01-09 19:35:00
2:55 PM,53.6,48.2,82,30.35,10.0,NE,8.1,-,N/A,,Overcast,40,2014-01-09 19:55:00
3:15 PM,53.6,48.2,82,30.35,10.0,NE,10.4,16.1,N/A,,Overcast,40,2014-01-09 20:15:00
3:35 PM,53.6,48.2,82,30.35,10.0,NNE,5.8,-,N/A,,Overcast,20,2014-01-09 20:35:00
3:55 PM,53.6,50.0,88,30.35,10.0,NE,9.2,-,N/A,,Overcast,40,2014-01-09 20:55:00
4:15 PM,53.6,50.0,88,30.34,10.0,NE,10.4,-,N/A,,Overcast,40,2014-01-09 21:15:00
4:35 PM,53.6,50.0,88,30.34,10.0,NNE,6.9,-,N/A,,Overcast,20,2014-01-09 21:35:00
4:55 PM,53.6,50.0,88,30.34,10.0,NE,5.8,-,N/A,,Overcast,40,2014-01-09 21:55:00
5:15 PM,53.6,51.8,94,30.33,10.0,NNE,6.9,-,N/A,,Overcast,30,2014-01-09 22:15:00
6:15 PM,53.6,51.8,94,30.33,10.0,NE,5.8,-,N/A,,Overcast,50,2014-01-09 23:15:00
6:35 PM,55.4,53.6,94,30.33,10.0,NE,4.6,-,N/A,,Overcast,40,2014-01-09 23:35:00
6:55 PM,55.4,53.6,94,30.34,10.0,NE,6.9,-,N/A,,Overcast,40,2014-01-09 23:55:00
7:15 PM,55.4,53.6,94,30.34,10.0,NE,5.8,-,N/A,,Overcast,40,2014-01-10 00:15:00
7:35 PM,55.4,53.6,94,30.35,10.0,NNE,5.8,-,N/A,,Overcast,30,2014-01-10 00:35:00
7:55 PM,55.4,53.6,94,30.35,10.0,NNE,6.9,-,N/A,,Overcast,30,2014-01-10 00:55:00
8:15 PM,55.4,55.4,100,30.36,10.0,NNE,5.8,-,N/A,,Overcast,30,2014-01-10 01:15:00
8:35 PM,55.4,55.4,100,30.36,10.0,NNE,5.8,-,N/A,,Overcast,20,2014-01-10 01:35:00
8:55 PM,55.4,55.4,100,30.37,10.0,NE,6.9,-,N/A,,Overcast,40,2014-01-10 01:55:00
9:15 PM,55.4,55.4,100,30.35,10.0,ENE,10.4,-,N/A,,Overcast,60,2014-01-10 02:15:00
9:35 PM,57.2,55.4,94,30.35,10.0,NE,6.9,-,N/A,,Mostly Cloudy,40,2014-01-10 02:35:00
9:55 PM,55.4,53.6,94,30.34,10.0,NE,5.8,-,N/A,,Overcast,40,2014-01-10 02:55:00
10:15 PM,55.4,53.6,94,30.34,10.0,NE,8.1,-,N/A,,Overcast,40,2014-01-10 03:15:00
10:35 PM,55.4,53.6,94,30.34,10.0,ENE,8.1,-,N/A,,Overcast,60,2014-01-10 03:35:00
10:55 PM,53.6,53.6,100,30.34,10.0,NE,4.6,-,N/A,,Overcast,40,2014-01-10 03:55:00
11:15 PM,53.6,53.6,100,30.34,7.0,ENE,4.6,-,N/A,,Overcast,60,2014-01-10 04:15:00
11:35 PM,53.6,53.6,100,30.33,7.0,North,3.5,-,N/A,,Overcast,360,2014-01-10 04:35:00
11:55 PM,53.6,53.6,100,30.33,7.0,NE,5.8,-,N/A,,Overcast,50,2014-01-10 04:55:00